PDT,Max TemperatureF,Mean TemperatureF,Min TemperatureF,Max Dew PointF,MeanDew PointF,Min DewpointF,Max Humidity, Mean Humidity, Min Humidity, Max Sea Level PressureIn, Mean Sea Level PressureIn, Min Sea Level PressureIn, Max VisibilityMiles, Mean VisibilityMiles, Min VisibilityMiles, Max Wind SpeedMPH, Mean Wind SpeedMPH, Max Gust SpeedMPH,PrecipitationIn, CloudCover, Events, WindDirDegrees
2013-3-1,46,40,34,42,38,34,100,92,83,30.40,30.34,30.29,10,5,0,12,3,15,0.02,6,Fog-Rain,149
2013-3-2,49,41,33,39,35,33,100,86,71,30.29,30.15,29.89,10,6,1,17,4,23,T,4,Rain,279
2013-3-3,44,33,22,34,22,19,85,63,41,30.23,30.03,29.87,10,10,2,20,9,33,0.00,4,,252
2013-3-4,45,32,19,24,20,17,92,64,36,30.33,30.25,30.13,10,10,10,13,7,18,0.00,0,,19
2013-3-5,38,34,29,30,25,18,89,71,52,30.12,29.99,29.86,10,9,2,20,12,24,T,7,Snow,26
2013-3-6,42,38,34,34,32,27,100,85,70,29.86,29.71,29.62,10,9,2,20,11,24,0.12,8,Rain-Snow,48
2013-3-7,41,34,26,37,32,26,100,93,85,30.11,29.98,29.82,10,5,1,13,4,15,0.14,7,Rain-Snow,152
2013-3-8,38,31,24,34,30,24,100,93,85,30.17,30.08,30.03,10,4,0,7,1,9,0.00,6,Fog,27
2013-3-9,47,35,23,34,29,22,100,73,45,30.46,30.34,30.11,10,5,0,7,0,9,0.00,1,Fog,203
2013-3-10,42,31,19,34,27,19,100,81,62,30.45,30.34,30.21,10,7,1,15,3,18,0.00,3,,181
2013-3-11,47,36,25,34,29,21,100,69,37,30.38,30.29,30.21,10,6,0,8,1,18,0.00,4,Fog,199
2013-3-12,46,40,33,41,36,28,100,88,75,30.25,30.12,30.05,10,9,5,13,4,14,0.09,7,,65
2013-3-13,53,46,39,42,39,37,100,82,64,30.21,30.16,30.10,10,10,10,12,4,14,T,7,,156
2013-3-14,57,47,36,44,40,35,100,80,59,30.16,30.06,29.99,10,10,9,16,5,20,0.00,4,,8
2013-3-15,57,47,37,41,37,33,85,66,47,30.17,30.10,30.01,10,10,10,15,7,17,0.00,3,,182
2013-3-16,53,45,36,38,35,30,92,68,44,30.04,29.86,29.67,10,10,10,29,11,35,0.02,6,Rain,191
2013-3-17,47,37,26,27,24,20,78,58,37,30.01,29.91,29.68,10,10,10,24,9,31,0.00,5,,224
2013-3-18,45,34,23,29,24,21,92,69,45,30.21,30.05,29.98,10,10,7,18,7,26,0.01,5,,177
2013-3-19,50,34,18,26,21,16,96,61,26,30.32,30.16,29.86,10,10,10,14,5,17,0.01,3,,43
2013-3-20,50,43,35,45,38,26,100,75,49,29.82,29.61,29.48,10,8,2,31,11,40,0.63,7,Rain,156
2013-3-21,44,36,28,27,23,18,78,59,40,30.04,29.96,29.80,10,9,2,26,10,32,0.01,6,Snow,219
2013-3-22,42,31,19,25,21,17,96,66,36,30.29,30.15,30.03,10,10,9,16,3,22,T,2,,187
2013-3-23,42,29,16,27,20,14,92,65,38,30.39,30.34,30.25,10,10,7,15,2,18,T,2,Snow,69
2013-3-24,46,32,17,24,19,13,92,61,29,30.40,30.33,30.23,10,10,10,12,3,21,0.00,1,,52
2013-3-25,50,36,21,25,20,15,74,53,31,30.22,30.13,30.03,10,10,10,13,4,16,0.00,0,,360
2013-3-26,57,42,27,28,24,20,85,59,32,30.05,30.01,29.97,10,10,10,9,3,13,0.00,0,,4
2013-3-27,57,43,28,39,31,25,96,68,40,30.03,30.00,29.97,10,10,10,10,2,13,0.00,3,,150
2013-3-28,60,44,28,41,35,28,100,70,40,30.10,30.06,30.02,10,9,2,12,3,14,0.00,5,,192
2013-3-29,60,44,28,39,34,26,100,65,29,30.24,30.18,30.12,10,10,9,15,4,17,0.00,3,,246
2013-3-30,64,45,26,39,32,25,100,66,31,30.33,30.25,30.15,10,9,1,12,2,17,0.00,0,,186
2013-3-31,69,48,27,37,32,25,92,57,22,30.14,30.06,29.94,10,10,10,7,2,14,0.00,0,,12